Theta_e
332 332 332 332 332 332 332 330 328 322 322 326 331 331 329 328 330 323 319 318 313 310 308 306 305 305 307 308 308 308 308 308 309 309 310 311 312 312
330 330 330 331 332 332 332 330 328 327 323 326 329 326 326 325 328 318 317 315 312 308 307 305 304 304 305 306 306 306 306 306 306 307 308 309 310 310
328 328 327 328 329 329 329 329 328 327 325 325 327 322 321 320 316 316 314 311 309 308 306 304 303 303 303 303 304 304 304 304 305 305 306 307 307 308
322 324 324 325 325 325 327 328 328 327 327 323 323 320 319 313 313 310 310 310 308 308 304 300 302 302 302 302 302 302 302 302 303 304 304 304 305 306
322 320 320 321 321 322 323 326 327 328 327 325 322 321 314 312 310 309 308 307 309 308 304 301 302 302 302 302 304 302 302 301 301 302 302 302 303 304
319 318 317 319 319 323 322 320 322 323 324 324 324 320 314 310 310 306 304 306 305 306 305 301 301 302 301 301 302 301 301 301 301 301 300 300 300 300
317 317 317 319 318 321 318 318 320 320 320 321 322 319 311 308 306 307 305 304 304 305 303 302 300 296 297 298 300 300 300 301 301 300 300 299 298 298
316 317 319 318 317 315 313 313 318 320 319 320 320 320 316 312 309 306 304 302 300 305 301 300 300 295 295 298 299 299 299 300 300 300 299 298 298 297
316 317 316 317 317 321 314 312 312 310 315 322 319 320 322 317 312 307 305 305 304 302 301 297 300 294 295 297 299 299 298 298 298 298 297 297 296 296
317 317 318 319 318 318 317 317 318 318 318 320 321 322 324 322 314 313 309 306 302 302 303 297 298 294 294 295 299 298 297 297 297 297 296 296 295 295
317 317 318 318 310 304 317 316 316 317 311 306 308 306 304 305 313 312 306 304 302 300 302 300 297 294 293 294 298 298 297 296 296 296 296 295 294 295
318 318 307 314 305 301 318 317 316 317 318 317 318 314 310 310 307 315 311 307 304 300 303 300 297 293 290 294 297 298 298 294 293 294 295 295 294 300
316 316 317 303 302 300 303 318 316 319 313 318 319 321 319 316 314 316 314 313 308 308 307 303 299 294 294 292 295 297 296 295 293 294 293 294 294 295
314 316 317 302 300 299 300 303 300 307 318 317 316 317 318 317 316 318 316 317 317 316 307 306 300 297 295 293 293 295 295 293 293 293 294 293 293 293
311 310 305 302 300 301 298 300 298 310 314 313 315 317 319 322 320 318 319 319 317 312 308 307 302 300 299 297 293 294 294 292 292 292 293 293 294 296
304 307 306 306 304 308 307 304 309 312 313 314 316 319 321 322 321 319 317 315 310 308 309 307 304 301 299 298 297 294 295 290 291 292 292 293 294 296
304 306 307 308 309 310 311 312 310 311 311 315 317 318 318 319 319 320 319 315 309 306 305 303 303 302 302 298 295 295 292 289 291 291 293 291 292 295
302 304 305 306 306 308 309 311 311 309 312 314 316 317 318 318 319 318 318 315 311 308 303 299 299 297 297 297 299 294 291 289 290 292 293 292 291 293
299 303 303 305 306 307 309 310 311 312 314 313 315 316 318 319 314 318 316 315 312 308 303 300 300 298 295 293 294 297 291 290 289 291 293 292 291 292
300 300 300 303 305 306 307 309 311 313 313 314 315 316 317 317 317 316 315 314 312 307 301 301 300 300 299 294 292 294 292 291 290 291 291 292 291 289
298 298 299 301 303 305 307 308 311 311 312 313 314 315 316 316 317 317 314 303 305 305 301 299 301 294 297 297 293 291 291 292 294 293 292 292 291 292
298 298 299 300 301 305 307 309 309 308 310 312 313 313 316 317 317 316 314 311 309 306 306 304 298 299 299 299 293 292 291 293 293 293 293 294 293 291
297 298 299 299 301 303 306 307 305 309 308 310 311 312 315 315 318 317 313 312 310 307 303 298 299 300 300 298 293 293 292 292 291 290 292 295 294 295
Wind_Speed
4 5 3 3 3 3 2 2 2 1 2 1 1 3 2 3 6 8 9 16 14 11 7 4 5 4 7 9 9 10 12 13 14 15 15 16 18 19
4 5 3 2 3 3 3 3 2 2 2 1 2 2 2 2 9 8 10 15 13 11 6 5 5 4 5 7 7 9 10 11 12 13 15 17 19 20
4 5 5 5 3 3 2 2 2 2 2 1 1 3 2 7 7 8 9 7 6 9 9 8 6 5 4 5 7 8 8 10 10 12 14 16 19 20
7 6 5 4 4 3 2 3 2 3 2 1 1 2 3 5 7 9 7 6 6 10 8 3 5 4 3 4 5 7 7 8 8 9 13 13 17 20
9 7 7 6 5 3 3 4 3 2 2 1 2 2 3 3 4 5 6 7 5 12 7 2 2 4 3 4 5 6 7 6 6 7 10 13 15 19
9 8 8 8 7 7 5 5 4 4 2 1 2 2 2 3 3 5 4 3 6 5 5 1 1 6 6 7 10 10 8 6 6 5 7 10 13 17
7 7 7 8 10 9 6 5 5 3 3 2 1 2 3 3 5 4 3 5 3 2 2 2 1 2 2 4 9 13 10 7 6 4 6 9 10 13
8 7 6 9 9 11 10 11 8 5 4 3 2 4 3 4 6 7 6 5 4 5 4 3 2 2 1 3 9 12 11 10 10 7 6 8 10 12
8 7 6 6 8 8 9 7 7 8 6 5 4 6 6 9 9 9 8 6 3 5 4 3 3 2 2 1 9 11 11 12 11 9 9 10 10 11
7 9 9 8 8 9 8 7 7 6 6 5 5 6 6 9 11 10 8 6 5 5 3 3 4 3 2 0 5 9 8 10 11 12 10 10 10 10
8 8 8 7 9 12 8 8 7 6 6 9 7 6 5 8 10 9 8 8 3 3 6 3 4 3 2 2 3 9 8 10 10 11 13 11 9 8
5 5 9 9 10 12 8 8 7 7 6 4 3 4 5 7 17 12 11 10 4 3 7 5 6 4 2 2 4 3 2 8 11 11 13 14 11 5
5 5 6 13 14 11 14 9 10 7 6 5 3 2 2 4 10 7 10 9 7 3 9 6 4 3 1 3 2 3 2 3 4 5 10 13 15 12
5 4 5 10 14 13 10 12 10 9 5 5 4 4 4 4 8 9 10 9 7 3 15 11 5 6 4 3 3 3 2 3 4 5 5 6 9 12
7 8 11 12 13 10 12 14 8 6 6 6 6 5 5 6 7 7 7 7 3 7 12 8 6 9 5 6 5 5 4 3 3 5 6 7 7 6
7 8 9 10 10 9 6 8 7 7 8 8 8 7 4 5 6 6 6 7 4 4 9 7 8 12 4 4 4 8 5 4 3 5 6 7 6 6
5 5 7 8 9 8 8 7 7 7 8 7 7 7 7 7 6 6 6 7 4 7 7 4 5 4 5 7 6 7 7 5 5 5 6 7 7 6
5 9 10 9 11 10 9 10 8 9 9 9 9 8 8 8 8 6 6 7 8 7 7 7 8 5 3 6 6 9 6 6 5 5 5 7 7 5
9 9 9 9 9 9 9 10 10 9 10 10 10 10 9 9 7 8 7 8 8 9 9 10 11 10 8 3 1 3 8 7 6 5 4 5 6 5
8 10 10 10 9 9 9 10 9 8 10 11 11 10 10 10 10 10 9 10 9 8 8 9 10 10 13 10 6 4 4 11 6 7 6 5 4 3
12 11 9 9 9 10 9 9 11 10 11 10 11 11 11 11 11 11 10 10 11 8 11 12 11 10 9 9 6 6 6 8 4 7 9 8 5 3
12 13 12 9 11 11 8 11 10 10 11 11 11 10 11 12 12 13 10 11 11 10 10 7 11 11 7 7 9 13 9 7 10 9 6 4 6 6
13 13 13 13 13 14 13 12 9 9 12 13 11 12 13 12 12 11 9 10 11 9 10 10 9 9 8 8 11 12 13 14 8 7 4 10 2 4
Wind_Direction
185 178 182 188 190 193 188 183 183 271 288 342 21 79 117 143 168 131 138 143 136 120 94 86 59 40 55 53 47 43 41 30 19 16 9 11 9 10
170 171 177 169 184 188 190 190 197 184 249 253 68 51 80 100 135 116 128 132 125 120 126 69 44 34 59 50 40 38 38 31 21 15 10 16 10 11
166 178 180 168 172 182 184 172 182 183 229 150 82 61 83 102 98 116 117 112 112 113 78 35 7 31 32 47 37 29 30 31 23 16 10 15 10 12
176 178 180 167 154 166 156 153 173 196 211 236 123 100 75 90 118 112 118 114 117 112 106 71 295 58 31 27 37 30 23 29 30 24 14 16 12 14
167 178 184 166 160 164 159 143 134 142 181 183 147 112 87 121 104 104 119 121 123 135 140 244 2 71 40 13 38 33 27 27 51 46 23 18 14 17
170 177 179 177 166 165 164 157 145 131 130 139 214 125 117 117 117 138 142 149 146 147 150 86 50 44 43 26 40 41 23 38 75 60 26 10 14 17
169 180 186 186 179 173 160 175 150 132 135 130 226 144 147 149 180 169 140 142 136 138 146 185 82 341 5 19 36 39 28 33 80 80 29 2 11 15
186 192 185 187 196 190 185 173 170 155 159 156 196 219 188 180 159 161 146 163 194 173 145 171 122 263 304 26 49 42 36 46 47 26 33 12 16 18
187 186 187 202 187 194 209 197 202 189 175 170 192 219 214 188 162 170 180 179 165 147 135 165 162 218 235 28 63 55 45 47 49 44 39 25 26 23
198 198 196 197 190 180 179 191 209 207 213 213 208 235 229 178 180 182 170 126 83 148 157 150 161 181 192 201 89 79 59 53 48 46 37 33 34 28
206 186 201 213 207 176 174 192 205 222 218 230 234 254 255 201 160 134 153 157 143 169 201 119 162 144 156 184 158 99 77 57 48 48 42 35 34 22
229 224 199 215 220 176 191 187 209 219 210 204 212 219 224 202 173 179 163 175 134 145 186 154 152 146 162 195 179 147 79 60 54 45 47 40 28 43
224 211 209 207 229 207 205 191 207 182 200 206 205 175 196 185 186 195 180 177 169 174 167 157 141 137 129 125 172 152 48 49 59 51 56 44 46 36
236 224 247 213 214 223 195 229 199 165 159 182 201 211 202 192 196 201 190 197 199 151 161 167 142 159 135 135 171 147 102 61 59 57 54 56 53 56
225 215 210 222 227 239 207 221 165 193 177 173 195 216 203 201 183 200 193 195 135 133 163 176 145 155 153 143 154 155 153 85 68 79 62 53 39 36
217 226 216 222 229 227 220 203 202 202 191 195 194 201 195 178 187 186 188 171 125 129 165 140 149 165 149 124 142 149 147 139 126 92 86 68 52 48
186 218 231 225 228 230 230 219 195 193 199 202 198 190 185 193 194 189 183 165 152 152 150 133 116 100 84 135 118 148 141 123 136 131 105 83 57 43
205 223 226 220 223 220 223 221 210 198 199 199 203 199 193 193 184 201 185 182 170 164 151 146 142 109 104 52 58 143 134 130 142 135 117 103 83 57
227 224 223 216 217 216 223 219 214 210 202 201 200 199 196 200 176 183 204 183 172 164 163 162 165 157 157 125 105 34 138 140 139 135 112 93 104 77
228 226 223 222 220 222 217 227 223 200 209 206 204 197 200 203 197 197 203 191 179 155 153 165 177 178 175 156 148 149 169 143 145 143 130 104 80 74
221 223 221 223 222 229 226 216 218 210 208 209 210 203 203 206 206 200 195 194 161 157 165 178 184 103 111 102 112 140 155 92 113 155 148 131 128 135
225 228 223 214 219 223 212 219 215 213 208 209 210 202 205 202 200 193 184 182 172 173 177 151 140 141 147 161 155 146 151 145 101 95 72 47 161 169
218 218 218 216 218 219 217 218 230 212 214 214 205 202 199 193 194 187 166 179 173 161 147 144 153 162 159 163 149 149 153 157 150 156 126 8 185 30